Weather History for Michigan City, IN

Change the Weather History Date:

Saturday, August 3, 2013

  Actual Average (KVPZ) Record (KVPZ)
Temperature  
Mean Temperature 64 °F 72 °F  
Max Temperature 71 °F 81 °F 93 °F (2012)
Min Temperature 57 °F 62 °F 55 °F (2000)
Degree Days  
Heating Degree Days 1 0  
Month to date heating degree days 0  
Since 1 June heating degree days 45  
Since 1 July heating degree days 4  
Cooling Degree Days 0 7  
Month to date cooling degree days 21  
Year to date cooling degree days 472  
Since 1 June cooling degree days 425  
Growing Degree Days 14 (Base 50)    
Moisture  
Dew Point 59 °F    
Average Humidity 79    
Maximum Humidity 100    
Minimum Humidity 50    
Precipitation  
Precipitation 0.00 in 0.15 in 0.78 in (2010)
Month to date precipitation 0.42  
Year to date precipitation 21.65  
Sea Level Pressure  
Sea Level Pressure 30.04 in    
Wind  
Wind Speed 3 mph (NNE)    
Max Wind Speed 13 mph    
Max Gust Speed 18 mph    
Visibility 7 miles    
Events Fog , Rain    
T = Trace of Precipitation, MM = Missing Value Source: NWS Daily Summary

Daily Weather History Graph

Daily Weather History Graph

Search for Another Location

Airport:

Trip Planner

Search our weather history database for the weather conditions in past years. The results will help you decide how hot, cold, wet, or windy it might be!

Date:

Astronomy

Aug. 03, 2013 Rise Set
Actual Time 5:43 AM CDT 8:02 PM CDT
Civil Twilight 5:12 AM CDT 8:33 PM CDT
Nautical Twilight 4:34 AM CDT 9:11 PM CDT
Astronomical Twilight 3:51 AM CDT 9:54 PM CDT
Moon 2:52 AM CDT (8/3) 5:45 PM CDT (8/3)
Length of Visible Light 15h 20m
Length of Day
14h 18m
Waning Crescent, 9% of the Moon is Illuminated
Aug 3
Waning Crescent
Aug 6
New
Aug 14
First Quarter
Aug 20
Full
Aug 28
Last Quarter

Hourly Weather History & Observations

Time (CDT) Temp. Dew Point Humidity Pressure Visibility Wind Dir Wind Speed Gust Speed Precip Events Conditions
12:15 AM 66.2 °F 64.4 °F 94% 29.96 in 7.0 mi Calm Calm - N/A   Overcast
12:35 AM 64.4 °F 64.4 °F 100% 29.96 in 4.0 mi Calm Calm - N/A   Light Drizzle
12:55 AM 64.4 °F 64.4 °F 100% 29.96 in 5.0 mi Calm Calm - N/A Rain Light Rain
1:15 AM 64.4 °F 62.6 °F 94% 29.97 in 7.0 mi Calm Calm - N/A   Scattered Clouds
1:35 AM 64.4 °F 64.4 °F 100% 29.96 in 5.0 mi Calm Calm - N/A   Scattered Clouds
1:55 AM 64.4 °F 62.6 °F 94% 29.96 in 5.0 mi Calm Calm - N/A   Scattered Clouds
2:15 AM 64.4 °F 62.6 °F 94% 29.96 in 5.0 mi Calm Calm - N/A   Mostly Cloudy
2:35 AM 64.4 °F 62.6 °F 94% 29.97 in 5.0 mi Calm Calm - N/A   Overcast
2:55 AM 64.4 °F 62.6 °F 94% 29.96 in 5.0 mi Calm Calm - N/A   Mostly Cloudy
3:15 AM 64.4 °F 62.6 °F 94% 29.96 in 3.0 mi Calm Calm - N/A   Scattered Clouds
3:35 AM 62.6 °F 62.6 °F 100% 29.97 in 0.5 mi Calm Calm - N/A Fog Fog
3:55 AM 62.6 °F 62.6 °F 100% 29.97 in 0.2 mi Calm Calm - N/A Fog Fog
4:15 AM 62.6 °F 60.8 °F 94% 29.97 in 0.2 mi Calm Calm - N/A Fog Fog
4:35 AM 60.8 °F 60.8 °F 100% 29.97 in 3.0 mi Calm Calm - N/A   Mostly Cloudy
4:55 AM 62.6 °F 62.6 °F 100% 29.98 in 1.8 mi Calm Calm - N/A   Overcast
5:15 AM 62.6 °F 62.6 °F 100% 29.98 in 0.5 mi Calm Calm - N/A Fog Fog
5:35 AM 62.6 °F 62.6 °F 100% 29.98 in 0.2 mi Calm Calm - N/A Fog Fog
5:55 AM 64.4 °F 62.6 °F 94% 29.99 in 0.2 mi Calm Calm - N/A Fog Fog
6:15 AM 64.4 °F 62.6 °F 94% 29.99 in 0.2 mi Calm Calm - N/A Fog Fog
6:35 AM 64.4 °F 62.6 °F 94% 29.99 in 0.2 mi Calm Calm - N/A Fog Fog
6:55 AM 64.4 °F 62.6 °F 94% 30.00 in 0.2 mi Calm Calm - N/A Fog Fog
7:15 AM 64.4 °F 62.6 °F 94% 30.01 in 0.2 mi Calm Calm - N/A Fog Fog
7:35 AM 64.4 °F 64.4 °F 100% 30.02 in 0.2 mi Calm Calm - N/A Fog Fog
7:55 AM 64.4 °F 64.4 °F 100% 30.02 in 2.0 mi ENE 4.6 mph - N/A   Overcast
8:15 AM 64.4 °F 64.4 °F 100% 30.02 in 3.0 mi NE 3.5 mph - N/A   Overcast
8:35 AM 66.2 °F 64.4 °F 94% 30.02 in 7.0 mi ENE 4.6 mph - N/A   Mostly Cloudy
8:55 AM 68.0 °F 64.4 °F 88% 30.03 in 10.0 mi NE 4.6 mph - N/A   Scattered Clouds
9:15 AM 68.0 °F 62.6 °F 83% 30.03 in 10.0 mi ENE 4.6 mph - N/A   Scattered Clouds
9:35 AM 71.6 °F 62.6 °F 73% 30.03 in 10.0 mi NE 4.6 mph - N/A   Scattered Clouds
9:55 AM 71.6 °F 60.8 °F 69% 30.04 in 10.0 mi NNE 5.8 mph - N/A   Clear
10:15 AM 71.6 °F 60.8 °F 69% 30.04 in 10.0 mi NNE 6.9 mph - N/A   Clear
10:35 AM 71.6 °F 60.8 °F 69% 30.05 in 10.0 mi North 9.2 mph - N/A   Clear
10:55 AM 71.6 °F 62.6 °F 73% 30.05 in 10.0 mi North 10.4 mph - N/A   Clear
11:35 AM 71.6 °F 60.8 °F 69% 30.06 in 10.0 mi NNW 9.2 mph - N/A   Clear
11:55 AM 71.6 °F 55.4 °F 57% 30.07 in 10.0 mi North 12.7 mph 17.3 mph N/A   Clear
12:15 PM 71.6 °F 55.4 °F 57% 30.07 in 10.0 mi NNE 10.4 mph - N/A   Clear
12:35 PM 71.6 °F 53.6 °F 53% 30.07 in 10.0 mi North 9.2 mph - N/A   Clear
12:55 PM 71.6 °F 55.4 °F 57% 30.07 in 10.0 mi North 10.4 mph 17.3 mph N/A   Clear
1:15 PM 71.6 °F 57.2 °F 60% 30.08 in 10.0 mi NNE 10.4 mph - N/A   Clear
1:35 PM 71.6 °F 59.0 °F 64% 30.08 in 10.0 mi North 10.4 mph 16.1 mph N/A   Clear
1:55 PM 71.6 °F 55.4 °F 57% 30.08 in 10.0 mi North 9.2 mph - N/A   Clear
2:15 PM 71.6 °F 55.4 °F 57% 30.08 in 10.0 mi NNW 8.1 mph - N/A   Clear
2:35 PM 71.6 °F 55.4 °F 57% 30.08 in 10.0 mi North 10.4 mph 16.1 mph N/A   Clear
2:55 PM 71.6 °F 51.8 °F 50% 30.09 in 10.0 mi North 9.2 mph - N/A   Clear
3:15 PM 71.6 °F 53.6 °F 53% 30.08 in 10.0 mi NNW 11.5 mph 16.1 mph N/A   Clear
3:35 PM 71.6 °F 55.4 °F 57% 30.09 in 10.0 mi North 9.2 mph - N/A   Clear
3:55 PM 71.6 °F 53.6 °F 53% 30.09 in 10.0 mi North 10.4 mph - N/A   Clear
4:15 PM 71.6 °F 53.6 °F 53% 30.09 in 10.0 mi North 8.1 mph 18.4 mph N/A   Clear
4:35 PM 71.6 °F 53.6 °F 53% 30.09 in 10.0 mi North 8.1 mph - N/A   Clear
4:55 PM 71.6 °F 53.6 °F 53% 30.08 in 10.0 mi NNE 5.8 mph - N/A   Clear
5:15 PM 69.8 °F 51.8 °F 53% 30.08 in 10.0 mi NNE 6.9 mph - N/A   Clear
5:35 PM 69.8 °F 51.8 °F 53% 30.09 in 10.0 mi NNE 6.9 mph - N/A   Scattered Clouds
5:55 PM 69.8 °F 51.8 °F 53% 30.08 in 10.0 mi North 5.8 mph - N/A   Clear
6:15 PM 69.8 °F 53.6 °F 56% 30.07 in 10.0 mi NNE 4.6 mph - N/A   Clear
6:35 PM 69.8 °F 51.8 °F 53% 30.07 in 10.0 mi North 5.8 mph - N/A   Clear
6:55 PM 68.0 °F 53.6 °F 60% 30.08 in 10.0 mi North 3.5 mph - N/A   Scattered Clouds
7:15 PM 66.2 °F 53.6 °F 64% 30.08 in 10.0 mi North 3.5 mph - N/A   Clear
7:35 PM 64.4 °F 53.6 °F 68% 30.08 in 10.0 mi North 3.5 mph - N/A   Clear
7:55 PM 64.4 °F 55.4 °F 73% 30.09 in 10.0 mi Calm Calm - N/A   Clear
8:15 PM 60.8 °F 55.4 °F 82% 30.09 in 10.0 mi Calm Calm - N/A   Clear
8:35 PM 60.8 °F 57.2 °F 88% 30.10 in 10.0 mi Calm Calm - N/A   Clear
8:55 PM 59.0 °F 55.4 °F 88% 30.10 in 10.0 mi Calm Calm - N/A   Clear
9:15 PM 60.8 °F 55.4 °F 82% 30.10 in 10.0 mi Calm Calm - N/A   Clear
9:35 PM 59.0 °F 55.4 °F 88% 30.10 in 10.0 mi Calm Calm - N/A   Clear
9:55 PM 57.2 °F 55.4 °F 94% 30.10 in 4.0 mi Calm Calm - N/A   Clear
10:15 PM 57.2 °F 55.4 °F 94% 30.10 in 10.0 mi Calm Calm - N/A   Clear
10:35 PM 57.2 °F 55.4 °F 94% 30.11 in 1.2 mi Calm Calm - N/A   Mist
10:55 PM 57.2 °F 55.4 °F 94% 30.11 in 10.0 mi Calm Calm - N/A   Scattered Clouds
11:15 PM 57.2 °F 55.4 °F 94% 30.11 in 10.0 mi Calm Calm - N/A   Overcast
11:35 PM 57.2 °F 55.4 °F 94% 30.11 in 10.0 mi Calm Calm - N/A   Overcast
11:55 PM 57.2 °F 55.4 °F 94% 30.12 in 10.0 mi Calm Calm - N/A   Mostly Cloudy